Time,TemperatureF,DewpointF,PressureIn,WindDirection,WindDirectionDegrees,WindSpeedMPH,WindSpeedGustMPH,Humidity,HourlyPrecipIn,Conditions,Clouds,dailyrainin,SoftwareType,DateUTC
2013-08-18 00:00:00,68.0,-99.9,30.20,South,170,11.0,-999.0,-999,-99.99,,,-99.99,,2013-08-18 05:00:00,
2013-08-18 00:43:00,68.0,-99.9,30.20,South,170,11.0,-999.0,-999,-99.99,,,-99.99,,2013-08-18 05:43:00,
2013-08-18 00:52:00,68.0,-99.9,30.20,South,170,11.0,-999.0,-999,-99.99,,,-99.99,,2013-08-18 05:52:00,
2013-08-18 01:00:00,67.0,-99.9,30.19,South,190,11.0,-999.0,-999,-99.99,,,-99.99,,2013-08-18 06:00:00,
2013-08-18 01:42:00,67.0,-99.9,30.19,South,190,11.0,-999.0,-999,-99.99,,,-99.99,,2013-08-18 06:42:00,
2013-08-18 01:52:00,67.0,-99.9,30.19,South,190,11.0,-999.0,-999,-99.99,,,-99.99,,2013-08-18 06:52:00,
2013-08-18 04:00:00,66.0,-99.9,30.19,SW,230,11.0,-999.0,-999,-99.99,,,-99.99,,2013-08-18 09:00:00,
2013-08-18 04:43:00,66.0,-99.9,30.19,SW,230,11.0,-999.0,-999,-99.99,,,-99.99,,2013-08-18 09:43:00,
2013-08-18 04:53:00,66.0,-99.9,30.19,SW,230,11.0,-999.0,-999,-99.99,,,-99.99,,2013-08-18 09:53:00,
2013-08-18 05:00:00,66.0,-99.9,30.18,SW,230,11.0,-999.0,-999,-99.99,,,-99.99,,2013-08-18 10:00:00,
2013-08-18 05:43:00,66.0,-99.9,30.18,SW,230,11.0,-999.0,-999,-99.99,,,-99.99,,2013-08-18 10:43:00,
2013-08-18 05:52:00,66.0,-99.9,30.18,SW,230,11.0,-999.0,-999,-99.99,,,-99.99,,2013-08-18 10:52:00,
2013-08-18 06:00:00,64.0,-99.9,30.17,WSW,250,8.0,-999.0,-999,-99.99,,,-99.99,,2013-08-18 11:00:00,
2013-08-18 06:42:00,64.0,-99.9,30.17,WSW,250,8.0,-999.0,-999,-99.99,,,-99.99,,2013-08-18 11:42:00,
2013-08-18 06:52:00,64.0,-99.9,30.17,WSW,250,8.0,-999.0,-999,-99.99,,,-99.99,,2013-08-18 11:52:00,
2013-08-18 07:00:00,63.0,-99.9,30.17,WSW,250,11.0,-999.0,-999,-99.99,,,-99.99,,2013-08-18 12:00:00,
2013-08-18 07:42:00,63.0,-99.9,30.17,WSW,250,11.0,-999.0,-999,-99.99,,,-99.99,,2013-08-18 12:42:00,
2013-08-18 07:52:00,63.0,-99.9,30.17,WSW,250,11.0,-999.0,-999,-99.99,,,-99.99,,2013-08-18 12:52:00,
2013-08-18 10:00:00,70.0,-99.9,30.17,WSW,250,14.0,-999.0,-999,-99.99,,,-99.99,,2013-08-18 15:00:00,
2013-08-18 10:43:00,70.0,-99.9,30.17,WSW,250,14.0,-999.0,-999,-99.99,,,-99.99,,2013-08-18 15:43:00,
2013-08-18 10:54:00,70.0,-99.9,30.17,WSW,250,14.0,-999.0,-999,-99.99,,,-99.99,,2013-08-18 15:54:00,
2013-08-18 11:00:00,74.0,-99.9,30.13,SW,230,14.0,-999.0,-999,-99.99,,,-99.99,,2013-08-18 16:00:00,
2013-08-18 11:42:00,74.0,-99.9,30.13,SW,230,14.0,-999.0,-999,-99.99,,,-99.99,,2013-08-18 16:42:00,
2013-08-18 11:52:00,74.0,-99.9,30.13,SW,230,14.0,-999.0,-999,-99.99,,,-99.99,,2013-08-18 16:52:00,
2013-08-18 12:00:00,77.0,-99.9,30.13,WSW,240,17.0,-999.0,-999,-99.99,,,-99.99,,2013-08-18 17:00:00,
2013-08-18 12:43:00,77.0,-99.9,30.13,WSW,240,17.0,-999.0,-999,-99.99,,,-99.99,,2013-08-18 17:43:00,
2013-08-18 12:52:00,77.0,-99.9,30.13,WSW,240,17.0,-999.0,-999,-99.99,,,-99.99,,2013-08-18 17:52:00,
2013-08-18 13:00:00,77.0,-99.9,30.12,SW,230,14.0,-999.0,-999,-99.99,,,-99.99,,2013-08-18 18:00:00,
2013-08-18 13:43:00,77.0,-99.9,30.12,SW,230,14.0,-999.0,-999,-99.99,,,-99.99,,2013-08-18 18:43:00,
2013-08-18 13:52:00,77.0,-99.9,30.12,SW,230,14.0,-999.0,-999,-99.99,,,-99.99,,2013-08-18 18:52:00,
2013-08-18 14:00:00,77.0,-99.9,30.10,West,260,9.0,-999.0,-999,-99.99,,,-99.99,,2013-08-18 19:00:00,
2013-08-18 14:42:00,77.0,-99.9,30.10,West,260,9.0,-999.0,-999,-99.99,,,-99.99,,2013-08-18 19:42:00,
2013-08-18 14:52:00,77.0,-99.9,30.10,West,260,9.0,-999.0,-999,-99.99,,,-99.99,,2013-08-18 19:52:00,
2013-08-18 15:00:00,76.0,-99.9,30.10,West,270,8.0,-999.0,-999,-99.99,,,-99.99,,2013-08-18 20:00:00,
2013-08-18 15:42:00,76.0,-99.9,30.10,West,270,8.0,-999.0,-999,-99.99,,,-99.99,,2013-08-18 20:42:00,
2013-08-18 15:52:00,76.0,-99.9,30.10,West,270,8.0,-999.0,-999,-99.99,,,-99.99,,2013-08-18 20:52:00,
2013-08-18 16:00:00,78.0,-99.9,30.08,SW,220,18.0,-999.0,-999,-99.99,,,-99.99,,2013-08-18 21:00:00,
2013-08-18 16:42:00,78.0,-99.9,30.08,SW,220,18.0,-999.0,-999,-99.99,,,-99.99,,2013-08-18 21:42:00,
2013-08-18 16:54:00,78.0,-99.9,30.08,SW,220,18.0,-999.0,-999,-99.99,,,-99.99,,2013-08-18 21:54:00,
2013-08-18 17:00:00,73.0,-99.9,30.07,SSW,210,18.0,-999.0,-999,-99.99,,,-99.99,,2013-08-18 22:00:00,
2013-08-18 17:42:00,73.0,-99.9,30.07,SSW,210,18.0,-999.0,-999,-99.99,,,-99.99,,2013-08-18 22:42:00,
2013-08-18 17:52:00,73.0,-99.9,30.07,SSW,210,18.0,-999.0,-999,-99.99,,,-99.99,,2013-08-18 22:52:00,
2013-08-18 18:00:00,72.0,-99.9,30.06,SE,130,7.0,-999.0,-999,-99.99,,,-99.99,,2013-08-18 23:00:00,
2013-08-18 18:42:00,72.0,-99.9,30.06,SE,130,7.0,-999.0,-999,-99.99,,,-99.99,,2013-08-18 23:42:00,
2013-08-18 18:52:00,72.0,-99.9,30.06,SE,130,7.0,-999.0,-999,-99.99,,,-99.99,,2013-08-18 23:52:00,
2013-08-18 23:00:00,67.0,-99.9,29.99,SSW,200,22.0,-999.0,-999,-99.99,,,-99.99,,2013-08-19 04:00:00,
2013-08-18 23:53:00,67.0,-99.9,29.99,SSW,200,22.0,-999.0,-999,-99.99,,,-99.99,,2013-08-19 04:53:00,